Location: *
(52.1219°S, 175.2069°W)
Time: 04:57:11
(UTC+00:00)

Daily predictions for brighter satellites

Satellite Brightness Start Highest point End
(mag) Time Altitude Azimuth Time Altitude Azimuth Time Altitude Azimuth
SKYMED 2 3.8 04:14:52 10° NE 04:19:08 52° ESE 04:23:28 10° S
Cosmos 1606 3.5 04:16:24 10° SSW 04:20:21 58° W 04:24:14 10° N
STARLINK-1272 4.1 04:17:32 10° NW 04:20:43 38° NNE 04:23:58 10° E
Cosmos 1844 3.8 04:15:51 10° SSW 04:21:32 90° E 04:27:08 10° NNE
STARLINK-1207 4.1 04:19:24 10° NW 04:22:37 39° NNE 04:25:52 10° E
ALOS 2.7 04:19:39 10° SSE 04:24:14 45° E 04:28:45 10° N
Cosmos 1340 3.5 04:21:02 10° NNE 04:24:28 32° E 04:27:57 10° SSE
STARLINK-1266 4.0 04:21:20 10° NW 04:24:35 40° NNE 04:27:51 10° E
H-2A R/B 3.3 04:20:46 10° SSE 04:24:36 32° E 04:28:16 10° NNE
Cosmos 2219 Rocket 3.2 04:20:59 10° NNE 04:25:43 27° ENE 04:30:29 10° SE
STARLINK-1284 4.0 04:23:17 10° NW 04:26:32 41° NNE 04:29:49 10° E
Iridium 4 Rocket 3.5 04:21:24 10° N 04:26:45 67° E 04:31:40 10° S
STARLINK-66 3.5 04:23:51 10° NW 04:27:03 54° NNE 04:30:17 10° ESE
Okean 3 Rocket 4.3 04:22:48 10° NNW 04:27:11 57° WSW 04:31:37 10° S
STARLINK-1258 3.9 04:25:11 10° NW 04:28:27 42° NNE 04:31:44 10° E
CZ-4B R/B 3.9 04:24:55 10° SSE 04:29:02 64° ENE 04:32:54 10° N
Meteor 2-6 Rocket 4.4 04:23:52 10° S 04:29:11 48° ESE 04:34:33 10° NE
SeaSat 1 4.5 04:29:17 10° SSE 04:30:22 11° SSE 04:31:27 10° S
STARLINK-1292 3.9 04:27:08 10° NW 04:30:25 43° NNE 04:33:44 10° E
PSLV R/B 4.5 04:26:25 10° N 04:30:40 69° WNW 04:34:58 10° SSW
STARLINK-52 3.3 04:27:44 10° WSW 04:31:02 70° NNW 04:34:18 10° ENE
Cosmos 2151 4.3 04:27:45 10° NW 04:31:50 42° WSW 04:35:58 10° S
STARLINK-1338 3.3 04:28:33 10° W 04:32:14 79° S 04:35:56 10° E
STARLINK-1274 3.9 04:29:07 10° NW 04:32:24 44° NNE 04:35:44 10° E
CZ-4C R/B 3.5 04:26:17 10° W 04:33:15 40° SSW 04:39:09 10° SE
STARLINK-1289 3.8 04:31:07 10° NW 04:34:26 45° NNE 04:37:43 10° E
Cosmos 1782 2.8 04:30:32 10° S 04:34:36 71° E 04:38:37 10° NNE
FALCON 9 DEB 3.3 04:31:23 10° WSW 04:34:58 82° NNW 04:38:30 10° ENE
STARLINK-1303 3.8 04:33:04 10° NW 04:36:24 46° NNE 04:39:37 11° E
Cosmos 1500 Rocket 3.7 04:33:20 10° N 04:37:38 53° E 04:41:56 10° SSE
STARLINK-1371 3.3 04:33:57 10° W 04:37:39 81° S 04:41:20 10° E
IDEFIX/ARIANE 42P 4.4 04:33:31 10° S 04:37:54 27° WSW 04:42:15 10° WNW
STARLINK-75 3.3 04:34:56 10° NW 04:38:08 57° NNE 04:41:08 12° E
STARLINK-1312 3.7 04:35:03 10° NW 04:38:23 48° NNE 04:41:32 11° E
SL-4 R/B 3.4 04:36:40 10° W 04:40:03 35° NNW 04:43:36 10° NE
Cosmos 1862 4.4 04:36:50 10° NE 04:40:12 25° E 04:43:36 10° SSE
STARLINK-1341 3.3 04:36:37 10° W 04:40:20 81° S 04:44:02 10° E
Cosmos 2322 Rocket 2.7 04:36:11 10° NW 04:41:51 62° SW 04:47:37 10° SSE
Cosmos 2237 4.3 04:36:56 10° NNW 04:42:41 85° ENE 04:48:28 10° SSE
STARLINK-1374 3.3 04:39:13 10° W 04:42:55 82° S 04:46:38 10° E
STARLINK-58 3.8 04:41:55 10° NW 04:45:00 41° NNE 04:47:38 13° E
Cosmos 1408 Rocket 4.0 04:40:42 10° NNW 04:45:11 70° WSW 04:49:46 10° S
STARLINK-1339 3.3 04:41:53 10° W 04:45:38 83° S 04:49:18 10° E
STARLINK-22 3.4 04:44:32 10° NW 04:47:46 56° NNE 04:50:24 14° E
STARLINK-1377 3.2 04:44:15 10° W 04:47:57 84° SSE 04:51:30 11° E
Cosmos 1805 Rocket 4.2 04:44:00 10° NNE 04:48:02 35° E 04:52:07 10° SSE
Cosmos 2123 Rocket 4.0 04:42:27 10° S 04:48:46 76° ESE 04:55:02 10° NNE
STARLINK-1353 3.3 04:46:55 10° W 04:50:38 85° S 04:54:05 12° E
Meteor 1-27 Rocket 4.2 04:45:12 10° S 04:50:48 41° ESE 04:56:24 10° NE
STARLINK 1040 2.4 04:48:14 10° W 04:50:55 82° S 04:52:48 18° ESE
Cosmos 1812 3.3 04:48:19 10° S 04:52:01 36° ESE 04:55:38 10° NE
STARLINK-1320 2.9 04:48:52 10° WSW 04:52:05 89° S 04:54:59 12° ENE
STARLINK-1322 2.9 04:49:11 10° WSW 04:52:24 89° S 04:55:18 12° ENE
STARLINK-1324 2.9 04:49:32 10° WSW 04:52:45 89° S 04:55:38 12° ENE
ADEOS 4.4 04:47:53 10° S 04:53:03 52° WSW 04:58:08 10° NW
STARLINK-1294 2.9 04:49:54 10° WSW 04:53:06 90° S 04:55:55 13° ENE
STARLINK-80 3.6 04:49:34 10° WNW 04:53:22 64° NNE 04:56:25 16° ESE
USA 234 3.4 04:47:01 11° ESE 04:53:22 73° NNE 04:59:59 10° NW
STARLINK-1261 2.9 04:50:12 10° WSW 04:53:25 90° SW 04:56:16 13° ENE
STARLINK-43 3.3 04:49:51 10° W 04:53:37 84° S 04:56:34 16° ESE
STARLINK-1375 3.3 04:49:56 10° WSW 04:53:40 86° SSE 04:57:03 12° E
STARLINK-1325 2.9 04:50:31 10° WSW 04:53:45 90° WNW 04:56:35 13° ENE
STARLINK-1333 2.9 04:50:54 10° WSW 04:54:08 90° NNE 04:56:57 13° ENE
Cosmos 1461 2.8 04:50:18 10° SW 04:54:19 55° SE 04:58:10 10° ENE
STARLINK-1334 2.9 04:51:13 10° WSW 04:54:27 89° NNE 04:57:16 13° ENE
STARLINK-1326 2.9 04:51:34 10° WSW 04:54:47 89° NW 04:57:35 13° ENE
STARLINK-1323 2.9 04:51:53 10° WSW 04:55:06 89° NW 04:57:54 13° ENE
COSMOS 2455 4.3 04:50:53 10° SW 04:55:19 20° S 04:58:54 13° SE
STARLINK-1349 2.9 04:52:16 10° WSW 04:55:29 89° NNW 04:58:15 13° ENE
Cosmos 1538 Rocket 4.0 04:50:18 10° NNW 04:55:32 82° ENE 05:00:49 10° SSE
STARLINK-1336 2.9 04:52:34 10° WSW 04:55:48 89° NNW 04:58:33 13° ENE
STARLINK-1350 3.3 04:52:19 10° WSW 04:56:01 87° S 04:59:17 13° E
STARLINK-1331 2.9 04:52:57 10° WSW 04:56:11 89° N 04:58:55 13° ENE
COSMOS 2428 3.2 04:50:57 10° N 04:56:17 41° ENE 05:01:20 12° SE
STARLINK-1344 2.9 04:53:18 10° WSW 04:56:32 88° NNW 04:59:15 14° ENE
STARLINK-1343 2.9 04:53:35 10° WSW 04:56:48 88° NNW 04:59:31 14° ENE
STARLINK-1346 2.9 04:54:00 10° WSW 04:57:12 88° N 04:59:51 14° ENE
STARLINK-1328 2.9 04:54:16 10° WSW 04:57:30 88° N 05:00:11 14° ENE
STARLINK-1354 2.9 04:54:36 10° WSW 04:57:48 88° NNW 05:00:29 14° ENE
STARLINK-1347 2.9 04:54:57 10° WSW 04:58:10 87° NNW 05:00:51 14° ENE
STARLINK-1357 2.9 04:55:17 10° WSW 04:58:31 87° N 05:01:10 14° ENE
STARLINK-1352 3.3 04:55:03 10° WSW 04:58:46 88° SSE 05:01:54 14° ENE
STARLINK-1335 2.9 04:55:41 10° WSW 04:58:55 87° N 05:01:32 14° ENE
STARLINK-1327 2.9 04:55:57 10° WSW 04:59:10 87° N 05:01:48 14° ENE
STARLINK-1340 2.9 04:56:18 10° WSW 04:59:30 87° NNW 05:02:08 15° ENE
ADEOS Rocket 3.9 04:52:04 10° N 04:59:45 77° WNW 05:07:40 10° SSW
STARLINK-1356 2.9 04:56:38 10° WSW 04:59:51 87° NNW 05:02:27 15° ENE
STARLINK-1345 2.9 04:56:58 10° WSW 05:00:11 86° NNW 05:02:47 15° ENE
STARLINK-1355 2.9 04:57:18 10° WSW 05:00:31 86° NNW 05:03:06 15° ENE
Meteor 1-31 Rocket 3.4 04:56:40 10° S 05:00:40 61° WSW 05:04:35 10° NNW
STARLINK-1321 2.9 04:57:40 10° WSW 05:00:53 86° NNW 05:03:27 15° ENE
STARLINK-1358 2.9 04:57:59 10° WSW 05:01:12 86° NNW 05:03:45 15° ENE
STARLINK-1368 3.3 04:57:48 10° WSW 05:01:31 90° SSE 05:04:33 15° ENE
STARLINK-1332 2.9 04:58:23 10° WSW 05:01:36 85° NNW 05:04:08 15° ENE
Cosmos 1624 Rocket 4.2 04:56:36 10° SSW 05:01:45 50° ESE 05:06:53 10° NE
STARLINK-1348 2.9 04:58:41 10° WSW 05:01:54 85° NNW 05:04:25 15° ENE
ATLAS 5 CENTAUR R/B 4.0 04:57:15 10° NNE 05:01:59 19° ENE 05:04:51 15° E
STARLINK-1283 3.5 04:58:18 10° WNW 05:02:10 72° NNE 05:04:52 19° E
STARLINK-1330 2.9 04:58:59 10° WSW 05:02:13 85° NNW 05:04:43 15° ENE
STARLINK-1363 2.9 04:59:24 10° WSW 05:02:37 85° NNW 05:05:07 16° ENE
STARLINK-1337 2.9 04:59:40 10° WSW 05:02:54 85° NNW 05:05:23 16° ENE
STARLINK-1342 2.9 05:00:01 10° WSW 05:03:14 84° NNW 05:05:43 16° ENE
STARLINK-1311 2.9 05:00:21 10° WNW 05:03:23 66° NNE 05:05:12 22° E
Cosmos 1535 Rocket 4.5 04:57:15 10° N 05:03:27 72° E 05:09:40 10° SSE
STARLINK-1364 2.9 05:00:20 10° WSW 05:03:34 84° NNW 05:06:01 16° ENE
STARLINK-1376 2.9 05:00:42 10° WSW 05:03:56 84° NNW 05:06:22 16° ENE
STARLINK-1360 2.9 05:01:02 10° WSW 05:04:15 84° NNW 05:06:40 16° ENE
STARLINK-1369 3.3 05:00:34 10° WSW 05:04:17 89° NNW 05:07:12 16° ENE
STARLINK-1361 2.9 05:01:21 10° WSW 05:04:34 84° NNW 05:06:59 16° ENE
STARLINK-1367 2.9 05:01:44 10° WSW 05:04:55 83° NNW 05:07:16 17° ENE
STARLINK-1366 2.9 05:02:05 10° WSW 05:05:19 83° NNW 05:07:42 17° ENE
CZ-4B R/B 3.9 05:00:27 10° SSE 05:05:22 33° E 05:10:18 10° NNE
Cosmos 1943 Rocket 3.6 05:01:39 10° SSW 05:05:31 18° SSE 05:07:26 16° SE
Cosmos 371 Rocket 4.4 05:02:26 10° S 05:06:25 24° SE 05:08:53 17° E
Cosmos 2369 Rocket 3.8 05:03:07 10° SSW 05:06:48 17° SSE 05:08:42 15° SE
STARLINK-1372 3.3 05:03:21 10° WSW 05:07:04 88° NNW 05:09:54 16° ENE
COSMO-SKYMED 1 3.3 05:02:51 10° N 05:07:11 58° W 05:11:35 10° SSW
Cosmos 1707 Rocket 3.7 05:02:53 10° S 05:07:19 51° ESE 05:11:39 10° NNE
Iridium 96 2.7 05:06:10 13° S 05:07:41 78° W 05:09:26 10° N
Cosmos 1821 Rocket 4.3 05:01:43 10° NNW 05:07:51 70° WSW 05:14:08 10° S
Cosmos 2237 Rocket 3.4 05:04:36 10° NNE 05:08:53 22° ENE 05:11:03 18° ESE
STARLINK-42 3.0 05:06:08 10° WNW 05:09:24 81° NNE 05:11:15 24° E
STARLINK-1316 3.0 05:06:20 10° WNW 05:09:31 68° NNE 05:11:15 24° E
STARLINK-1378 3.3 05:06:24 10° WSW 05:10:08 86° NNW 05:12:53 17° ENE
STARLINK-1257 3.0 05:07:16 10° WNW 05:10:27 69° NNE 05:12:08 25° E
Meteor 2-20 Rocket 4.4 05:04:57 10° S 05:11:16 75° ESE 05:17:28 10° NNE
SL-16 R/B 3.4 05:06:01 10° WNW 05:11:19 38° SW 05:16:40 10° SSE
STARLINK-1256 3.0 05:08:09 10° WNW 05:11:20 69° NNE 05:13:00 25° E
Cosmos 1633 2.8 05:08:16 10° NNW 05:11:56 70° WSW 05:15:36 10° S
STARLINK-1213 3.0 05:09:03 10° WNW 05:12:14 70° NNE 05:13:52 26° E
Cosmos 2228 Rocket 3.8 05:07:42 10° SSW 05:12:15 58° W 05:16:42 10° N
STARLINK-1329 3.3 05:08:40 10° WSW 05:12:24 85° NNW 05:15:02 18° ENE
STARLINK-1379 3.3 05:08:57 10° WSW 05:12:40 85° NNW 05:15:17 18° ENE
STARLINK-1263 3.0 05:09:57 10° WNW 05:13:08 70° NNE 05:14:44 27° E
STARLINK-1286 4.5 05:09:51 10° NW 05:13:48 39° NNE 05:16:08 21° E
STARLINK-1259 3.0 05:10:50 10° WNW 05:14:01 71° NNE 05:15:35 27° E
STARLINK-1265 2.9 05:11:23 10° WNW 05:14:32 71° NNE 05:16:03 28° E
STARLINK-1285 3.0 05:11:44 10° WNW 05:14:55 72° NNE 05:16:27 28° E
STARLINK-1268 2.9 05:12:22 10° WNW 05:15:33 72° NNE 05:17:02 28° E
STARLINK-1362 3.3 05:11:51 10° WSW 05:15:37 83° NNW 05:18:11 19° ENE
STARLINK-1365 3.4 05:12:04 10° WSW 05:15:50 82° NNW 05:18:25 19° ENE
STARLINK-1296 2.9 05:13:33 10° WNW 05:16:45 73° NNE 05:18:13 29° E
Cosmos 1371 Rocket 4.0 05:11:24 10° SSW 05:16:53 71° ESE 05:22:16 10° NNE
ATLAS CENTAUR R/B 3.1 05:13:19 10° SSW 05:16:59 22° SSE 05:18:35 19° SE
STARLINK-1260 2.9 05:14:28 10° WNW 05:17:39 74° NNE 05:19:04 30° E
STARLINK-1373 3.3 05:14:38 10° WSW 05:18:24 82° NNW 05:20:50 21° ENE
STARLINK-1318 2.9 05:15:22 10° WNW 05:18:34 74° NNE 05:19:57 31° E
STARLINK-1275 2.9 05:16:13 10° WNW 05:19:25 75° NNE 05:20:46 31° E
STARLINK-1309 2.9 05:17:07 10° WNW 05:20:19 76° NNE 05:21:39 32° E
USA 116 4.5 05:15:26 10° NNE 05:20:24 85° WNW 05:25:48 10° SSW
STARLINK-1390 3.3 05:17:20 10° WSW 05:21:04 80° NNW 05:23:23 22° ENE
Cosmos 1862 Rocket 4.1 05:16:57 10° S 05:21:13 37° ESE 05:25:27 10° NE
STARLINK-1282 2.9 05:18:03 10° WNW 05:21:14 76° NNE 05:22:32 33° E
NOSS 3-4 (A) 4.2 05:14:04 10° SW 05:21:18 45° SSE 05:25:49 20° E
NOSS 3-4 (C) 4.2 05:14:10 10° SW 05:21:24 45° SSE 05:25:52 20° E
STARLINK-1313 2.9 05:19:04 10° WNW 05:22:17 81° NNE 05:23:32 34° E
Cosmos 1934 Rocket 4.1 05:16:02 10° N 05:22:26 85° W 05:28:57 10° S
STARLINK-62 3.1 05:19:26 10° WNW 05:22:41 66° NNE 05:23:57 33° E
STARLINK-1279 2.9 05:20:02 10° WNW 05:23:15 82° NNE 05:24:28 35° E
STARLINK-1298 2.9 05:20:44 10° WNW 05:23:56 78° NNE 05:25:07 35° E
STARLINK-1029 3.2 05:20:57 10° NW 05:24:06 56° NNE 05:25:14 33° E
STARLINK-34 3.0 05:21:22 10° WNW 05:24:37 68° NNE 05:25:50 34° E
STARLINK-1293 2.9 05:21:40 10° WNW 05:24:52 79° NNE 05:26:02 36° E
Cosmos 405 3.2 05:22:00 10° SSW 05:25:37 73° W 05:29:09 10° N
STARLINK-1301 3.2 05:22:20 10° WNW 05:25:53 82° NNE 05:27:22 33° E
STARLINK-55 2.9 05:23:03 10° W 05:26:20 85° SSW 05:27:31 37° ESE
Cosmos 158 Rocket 4.3 05:21:24 10° N 05:26:25 49° ENE 05:30:07 18° SE
STARLINK-1255 2.9 05:23:27 10° WNW 05:26:39 80° NNE 05:27:44 38° E
Okean O Rocket 2.0 05:23:38 15° SSE 05:27:06 43° E 05:31:22 10° N
H-2A R/B 3.1 05:25:18 21° SE 05:27:35 43° E 05:31:20 10° N
STARLINK-1299 4.1 05:23:26 10° NW 05:27:38 51° NNE 05:29:38 28° E
STARLINK-1306 4.2 05:24:02 10° NW 05:28:08 47° NNE 05:30:01 28° E
Meteor 1-10 Rocket 4.4 05:22:38 10° SSW 05:28:19 77° W 05:34:01 10° N
FENGYUN 3A 4.2 05:22:59 10° S 05:28:26 61° WSW 05:33:47 10° NNW
Cosmos 2333 Rocket 2.2 05:22:58 10° NNW 05:28:46 76° ENE 05:33:32 16° SE
STARLINK-1307 3.2 05:25:41 10° WNW 05:29:16 81° NNE 05:30:38 36° E
Cosmos 2278 Rocket 2.2 05:23:32 10° SSW 05:29:18 86° ESE 05:35:01 10° NNE
Cosmos 2112 Rocket 4.2 05:24:45 10° N 05:29:54 52° ENE 05:33:30 19° SE
Cosmos 1484 Rocket 4.4 05:27:01 10° S 05:30:36 34° WSW 05:34:05 10° NW
STARLINK-1281 4.2 05:27:19 10° NW 05:31:21 46° NNE 05:33:02 29° E
STARLINK-1290 3.1 05:28:25 10° WNW 05:32:00 83° NNE 05:33:15 38° E
Cosmos 1605 Rocket 3.9 05:27:00 10° N 05:33:14 80° E 05:39:27 10° SSE
STARLINK-1297 3.1 05:31:05 10° WNW 05:34:39 84° NNE 05:35:48 41° E
SMAP 3.6 05:32:36 24° SE 05:34:45 36° E 05:39:05 10° NNE
STARLINK-26 3.1 05:31:36 10° W 05:35:08 82° S 05:36:13 42° ESE
Sich 1 3.0 05:30:58 10° N 05:35:23 74° E 05:39:55 10° SSE
STARLINK-1310 4.1 05:32:16 10° NW 05:36:19 49° NNE 05:37:49 33° E
STARLINK-28 2.9 05:33:26 10° W 05:36:44 80° S 05:37:31 49° ESE
STARLINK-41 2.9 05:35:36 10° W 05:38:50 84° SSW 05:39:29 54° ESE
PSLV R/B 4.3 05:35:22 10° S 05:39:34 66° WSW 05:43:41 10° NNW
STARLINK-1319 4.0 05:37:11 10° NW 05:41:16 51° NNE 05:42:36 36° E
STARLINK-48 3.5 05:38:43 10° WNW 05:42:40 72° NNE 05:43:52 43° E
Cosmos 2322 4.0 05:37:02 10° NW 05:42:43 68° SW 05:47:32 15° SSE
Cosmos 1346 Rocket 3.4 05:38:54 10° NNW 05:42:50 57° WSW 05:46:51 10° S
Cosmos 2056 Rocket 3.6 05:39:54 10° SSW 05:45:22 85° WNW 05:50:40 10° NNE
Cosmos 2360 Rocket 3.2 05:40:30 10° WNW 05:45:54 42° SW 05:50:57 12° SSE
STARLINK-1277 3.9 05:42:07 10° NW 05:46:13 54° NNE 05:47:22 40° ENE
ATLAS 2AS CENTAUR R/B 2.9 05:41:42 10° SW 05:47:57 50° SSE 05:51:07 30° E
NOAA 6 4.0 05:45:07 10° SSE 05:50:22 86° ENE 05:55:33 10° NNW
STARLINK-1276 3.9 05:47:04 10° NW 05:51:12 57° NNE 05:52:09 45° ENE
STARLINK-1291 2.9 05:48:05 10° W 05:51:31 86° S 05:51:51 71° ESE
MOS 1-B 4.4 05:46:15 10° SSE 05:52:11 81° WSW 05:58:02 10° NNW
STARLINK-1317 3.1 05:49:03 10° W 05:52:41 85° S 05:53:10 64° ESE
SJ-7 4.4 05:49:33 16° SSE 05:52:48 84° WSW 05:56:51 10° NNW
STARLINK-1264 2.9 05:49:59 10° W 05:53:25 85° SSW 05:53:41 74° ESE
STARLINK-33 2.9 05:51:09 10° W 05:54:28 77° S 05:54:33 76° SSE
CZ-2C R/B 3.1 05:53:39 33° E 05:55:08 40° ESE 06:00:10 10° S
STARLINK-1267 2.9 05:51:54 10° W 05:55:22 84° S 05:55:35 77° SE
Cosmos 1980 Rocket 4.4 05:52:25 10° SW 05:55:30 14° SSW 05:58:34 10° SSE
STARLINK-1305 3.8 05:52:01 10° NW 05:56:10 60° NNE 05:56:57 50° ENE
STARLINK-1272 2.9 05:53:48 10° W 05:57:15 84° SSW 05:57:24 80° SE
STARLINK-64 3.1 05:55:02 10° WNW 05:58:39 72° NNE 05:58:52 69° NE
STARLINK-1207 3.0 05:55:43 10° W 05:59:11 83° S 05:59:15 82° SSE
Cosmos 1818 3.8 05:54:28 10° NNW 05:59:38 47° ENE 06:00:42 41° E
STARLINK-1278 3.7 05:55:37 10° WNW 05:59:55 69° NNE 06:00:43 54° ENE
H-2A R/B 4.1 05:56:14 10° S 06:00:05 33° WSW 06:03:45 10° NW
Cosmos 332 Rocket 4.1 05:56:13 10° SSW 06:00:57 44° ESE 06:01:02 44° ESE
STARLINK-1262 3.7 05:56:58 10° WNW 06:01:08 63° NNE 06:01:44 55° ENE
STARLINK-1266 3.0 05:57:42 10° W 06:01:09 82° S 06:01:09 82° S
YAOGAN 6 4.1 06:03:03 26° NNE 06:03:03 26° NNE 06:04:54 10° N
ALOS 4.1 05:57:23 10° S 06:01:30 30° WSW 06:05:34 10° WNW
STARLINK-1280 3.7 05:57:27 10° WNW 06:01:46 70° NNE 06:02:29 57° ENE
Cosmos 1666 Rocket 3.5 05:57:28 10° N 06:01:53 89° WSW 06:04:56 20° S
STARLINK-1284 3.1 05:59:41 10° W 06:03:04 80° SW 06:03:04 80° SW
STARLINK-66 3.1 05:59:52 10° W 06:02:55 69° SW 06:02:55 69° SW
Cosmos 1633 Rocket 3.0 05:59:32 10° N 06:04:00 82° E 06:06:32 26° SSE
STARLINK-1258 3.1 06:01:36 10° W 06:04:55 77° SW 06:04:55 77° SW
STARLINK-1300 3.6 06:01:54 10° WNW 06:06:05 66° NNE 06:06:29 61° ENE
Meteor 1-18 Rocket 4.4 06:00:53 10° S 06:06:29 48° ESE 06:08:02 39° ENE
SeaSat 1 3.8 06:07:27 24° SSE 06:07:27 24° SSE 06:10:35 10° SSW
STARLINK-1292 3.2 06:03:35 10° W 06:06:49 74° WSW 06:06:49 74° WSW
Meteor 1-25 Rocket 4.5 06:02:41 10° NNE 06:07:53 43° E 06:07:53 43° E
STARLINK-1274 3.3 06:05:36 10° W 06:08:46 70° WSW 06:08:46 70° WSW
Cosmos 2219 Rocket 2.5 06:03:35 10° NW 06:09:16 65° SW 06:13:00 22° SSE
STARLINK-1338 3.9 06:06:05 10° WSW 06:09:38 48° NNW 06:10:05 45° N
Cosmos 2100 Rocket 3.9 06:03:50 10° N 06:09:58 65° E 06:16:09 10° SSE
Cosmos 1680 Rocket 3.7 06:05:23 10° NNW 06:10:42 72° WSW 06:13:59 24° SSE
STARLINK-1295 3.6 06:06:54 10° WNW 06:11:06 69° NNE 06:11:18 67° NE
STARLINK-1289 3.4 06:07:39 10° W 06:10:44 66° WSW 06:10:44 66° WSW
STARLINK-1303 3.5 06:09:37 10° W 06:12:38 63° WSW 06:12:38 63° WSW
STARLINK-75 3.8 06:10:59 10° W 06:13:34 51° WSW 06:13:34 51° WSW
STARLINK-1371 4.1 06:11:33 10° W 06:15:04 45° NNW 06:15:21 44° NNW
STARLINK-1312 3.6 06:11:38 10° W 06:14:34 60° WSW 06:14:34 60° WSW
Cosmos 1452 Rocket 3.4 06:10:29 10° SSW 06:15:50 71° ESE 06:17:29 44° NE
STARLINK-1287 3.6 06:11:50 10° WNW 06:16:02 72° NNE 06:16:03 72° NNE
STARLINK-1341 4.1 06:14:18 10° W 06:17:50 44° NNW 06:18:02 43° NNW
Cosmos 1420 Rocket 4.0 06:13:47 10° SSW 06:19:12 83° WNW 06:24:07 12° NNE
STARLINK-1374 4.2 06:16:52 10° W 06:20:24 43° NNW 06:20:30 43° NNW
STARLINK-58 4.2 06:17:39 10° W 06:19:58 43° W 06:19:58 43° W
STARLINK-1339 4.3 06:19:37 10° W 06:23:08 41° NNW 06:23:10 41° NNW
CZ-4C R/B 3.5 06:17:29 10° WSW 06:23:23 30° S 06:24:38 27° SSE
STARLINK-22 4.3 06:20:34 10° W 06:22:50 40° W 06:22:50 40° W
Envisat 2.9 06:21:20 30° SSE 06:23:57 85° ENE 06:29:06 10° NNW
Cosmos 1980 3.6 06:18:33 10° NNW 06:24:14 76° ENE 06:25:39 52° SE
STARLINK-1377 4.4 06:21:49 10° W 06:25:11 40° NW 06:25:11 40° NW
STARLINK-1302 3.8 06:21:46 10° WNW 06:25:38 70° NNW 06:25:38 70° NNW
Cosmos 2061 Rocket 4.0 06:20:40 10° N 06:26:47 57° E 06:28:12 47° SE
Cosmos 1238 Rocket 3.1 06:22:43 10° NNW 06:27:00 64° W 06:27:18 61° SW
Cosmos 2322 Rocket 4.3 06:22:57 10° WSW 06:27:07 20° SSW 06:30:39 12° S
Feng Yun 1-1 Rocket 4.1 06:27:58 61° ENE 06:27:58 61° ENE 06:33:17 10° N
STARLINK-1353 4.5 06:24:31 10° W 06:27:46 38° NW 06:27:46 38° NW
Cosmos 2297 3.5 06:23:40 10° SSW 06:29:24 78° ESE 06:30:33 58° NE
MOS 1 Rocket 3.6 06:31:08 55° S 06:31:08 55° S 06:35:05 10° S
STARLINK-1273 3.9 06:26:45 10° WNW 06:30:25 65° NW 06:30:25 65° NW
Helios 1A Rocket 4.3 06:33:10 30° N 06:33:10 30° N 06:35:16 10° NNW
STARLINK-43 4.2 06:27:47 10° W 06:30:36 48° WSW 06:30:36 48° WSW
STARLINK-80 4.1 06:27:46 10° W 06:30:50 52° WSW 06:30:50 52° WSW
Meteor 1-20 Rocket 4.2 06:25:57 10° N 06:31:41 67° E 06:32:30 59° SE
NOSS 0 Rocket 3.9 06:26:45 10° NNW 06:33:02 87° WSW 06:35:22 42° SSE
STARLINK-1288 4.1 06:31:42 10° WNW 06:35:11 59° WNW 06:35:11 59° WNW
CZ-2C R/B 3.9 06:36:46 66° S 06:36:46 66° S 06:40:58 10° SSW
USA 234 3.4 06:34:22 45° SE 06:36:23 66° SSW 06:42:56 10° W
Cosmos 2016 Rocket 3.9 06:31:04 10° N 06:37:18 67° E 06:39:15 45° SSE
Cosmos 2173 Rocket 3.9 06:32:50 10° N 06:39:10 88° WSW 06:45:28 10° S
COSMOS 2428 3.6 06:34:58 10° WNW 06:40:32 47° SW 06:43:22 27° S
STARLINK-1308 4.3 06:36:43 10° WNW 06:40:00 53° WNW 06:40:00 53° WNW
Cosmos 2242 Rocket 4.0 06:38:09 10° SSW 06:42:03 60° SW 06:42:03 60° SW
COSMOS 2455 3.7 06:37:20 10° SSW 06:42:03 36° SSE 06:42:03 36° SSE
Cosmos 1816 Rocket 4.4 06:36:41 10° S 06:43:09 77° E 06:45:21 43° NNE
Lacrosse 5 rocket 3.7 06:39:18 10° NNW 06:40:19 16° N 06:40:19 16° N
DMSP B5D2-2 4.0 06:42:44 65° NNE 06:43:34 89° W 06:48:54 10° SSW
ATLAS 5 CENTAUR R/B 2.5 06:38:55 10° NNW 06:45:59 69° NE 06:46:25 67° ENE
CZ-4B R/B 4.0 06:41:08 11° S 06:46:07 49° WSW 06:51:25 10° NW
Cosmos 1459 Rocket 4.0 06:40:03 10° NNW 06:46:19 80° W 06:52:47 10° S
Cosmos 371 Rocket 3.5 06:42:27 10° SSW 06:47:19 66° WNW 06:47:37 64° NW
CORIOLIS 4.3 06:47:22 38° S 06:49:32 75° WSW 06:55:00 10° NNW
Cosmos 1943 Rocket 2.8 06:44:58 10° SSW 06:48:58 43° S 06:48:58 43° S
Cosmos 1470 Rocket 4.2 06:46:39 10° NNW 06:50:24 53° WNW 06:50:24 53° WNW
Gblst 52 Del rocket 4.2 06:45:07 10° W 06:51:42 86° N 06:51:55 83° ENE
Cosmos 2369 Rocket 3.2 06:46:44 10° SSW 06:50:29 36° S 06:50:29 36° S
Cosmos 2237 Rocket 2.2 06:46:40 10° NW 06:52:22 77° WSW 06:52:55 70° S
NOAA 12 4.3 06:53:40 53° S 06:54:51 70° WSW 07:00:07 10° NNW
ATLAS CENTAUR R/B 3.1 06:52:08 10° SW 06:54:46 32° SSW 06:54:46 32° SSW
SL-16 R/B 4.4 06:53:57 10° SW 06:57:10 15° SSW 06:59:16 13° S
Okean O Rocket 3.5 07:01:06 19° SSW 07:03:18 28° WSW 07:07:06 10° WNW
SL-16 R/B 3.8 07:02:19 10° NNW 07:04:24 23° N 07:04:24 23° N
BREEZE M DEB (TANK) 4.3 06:49:03 10° WSW 07:11:37 61° NNW 07:13:12 51° NNE
SMAP 4.5 07:11:04 32° SW 07:12:05 36° WSW 07:16:23 10° NW
NOSS 3-4 (A) 3.6 07:05:34 10° SW 07:12:54 78° NW 07:13:16 75° NNW
NOSS 3-4 (C) 3.6 07:05:40 10° SW 07:12:59 78° NW 07:13:20 76° NNW
Cosmos 1802 Rocket 4.4 07:06:41 10° NNW 07:13:07 66° WSW 07:19:36 10° S
Cosmos 2333 Rocket 3.8 07:08:36 10° W 07:13:38 29° SW 07:15:33 24° S
Cosmos 1725 Rocket 4.5 07:09:17 10° N 07:24:27 - S 07:13:48 50° NNW
NOSS 3-3 (A) 4.4 07:16:39 10° NW 07:24:52 83° SW 07:25:07 82° S
NOSS 3-3 (C) 4.3 07:16:45 10° NW 07:24:58 84° SW 07:25:10 83° SSW
Cosmos 2360 Rocket 4.4 07:28:06 10° WSW 07:31:31 16° SSW 07:32:44 15° S
CZ-2C R/B 3.8 07:35:11 40° WNW 07:35:26 40° W 07:40:34 10° SSW
ATLAS 2AS CENTAUR R/B 3.1 07:32:36 10° SW 07:38:35 58° WNW 07:38:35 58° WNW
Cosmos 2219 Rocket 4.3 07:50:10 10° W 07:54:23 20° SSW 07:54:45 20° SSW
CZ-4C R/B 4.3 08:07:17 10° SW 08:09:49 23° SSW 08:09:49 23° SSW
USA 234 4.5 08:21:43 37° SW 08:21:43 37° SW 08:25:34 10° WSW
ATLAS 5 CENTAUR R/B 4.2 08:24:30 10° WNW 08:27:59 28° W 08:27:59 28° W
